Latest Weather Observations for Walpole North

IDW60801

Issued at 3:02 pm WST Sunday 24 May 2015 (issued every 30 minutes, with the page automatically refreshed every 10 minutes)

About weather observations | Map of weather stations | Latest weather observations for WA | Other Formats
Station Details ID: 009998 Name: NORTH WALPOLE Lat: -34.95 Lon: 116.72 Height: 73.0 m
Data from the previous 72 hours. | See also: Recent months at Walpole North
Date/Time
WST
Temp
°C
App
Temp
°C
Dew
Point
Rel
Hum
%
Delta-T
°C
Wind Press
QNH
hPa
Press
MSL
hPa
Rain
since 9 am
mm
Dir
 
Spd
km/h
Gust
km/h
Spd
kts
Gust
kts
24/03:00pm 16.4 16.1 11.3 72 2.7 N 4 11 2 6 1020.3 1020.2 0.0
24/02:30pm 16.3 15.4 11.2 72 2.7 NNE 7 13 4 7 1020.3 1020.2 0.0
24/02:00pm 16.2 15.7 10.9 71 2.8 NNE 4 11 2 6 1020.5 1020.4 0.0
24/01:30pm 16.7 15.8 11.4 71 2.9 N 7 15 4 8 1020.5 1020.4 0.0
24/01:00pm 15.9 14.6 11.3 74 2.5 NNW 9 17 5 9 1020.8 1020.7 0.0
24/12:30pm 15.8 14.5 11.4 75 2.4 NNW 9 17 5 9 1021.0 1020.9 0.0
24/12:00pm 16.6 15.3 12.4 76 2.3 NNW 11 17 6 9 1021.4 1021.3 0.0
24/11:30am 15.8 14.0 12.0 78 2.1 NNW 13 20 7 11 1021.7 1021.6 0.0
24/11:00am 15.9 14.6 12.6 81 1.8 NNW 11 20 6 11 1022.1 1022.0 0.0
24/10:30am 15.3 15.3 13.7 90 0.9 NNW 6 13 3 7 1022.2 1022.1 0.0
24/10:00am 13.9 14.9 13.3 96 0.3 CALM 0 0 0 0 1022.3 1022.2 0.0
24/09:30am 13.2 14.1 12.9 98 0.2 CALM 0 0 0 0 1022.2 1022.1 0.0
24/09:00am 12.3 12.6 12.1 99 0.1 NW 2 7 1 4 1022.1 1022.0 2.0
24/08:30am 11.8 12.3 11.6 99 0.1 CALM 0 0 0 0 1021.9 1021.8 2.0
24/08:00am 11.4 11.8 11.2 99 0.1 CALM 0 0 0 0 1021.6 1021.5 2.0
24/07:30am 10.6 10.7 10.3 98 0.2 CALM 0 0 0 0 1021.3 1021.2 2.0
24/07:00am 10.3 10.3 9.8 97 0.3 CALM 0 0 0 0 1021.2 1021.1 2.0
24/06:30am 10.6 10.7 10.0 96 0.3 CALM 0 0 0 0 1021.0 1020.9 2.0
24/06:00am 11.0 11.2 10.4 96 0.3 CALM 0 0 0 0 1020.9 1020.8 2.0
24/05:30am 10.8 10.9 10.2 96 0.3 CALM 0 0 0 0 1020.9 1020.8 2.0
24/05:00am 10.8 10.9 10.0 95 0.4 CALM 0 0 0 0 1020.9 1020.8 2.0
24/04:30am 10.5 10.4 9.4 93 0.6 CALM 0 0 0 0 1020.6 1020.5 2.0
24/04:00am 10.9 10.8 9.5 91 0.7 CALM 0 0 0 0 1020.3 1020.2 2.0
24/03:30am 11.5 11.5 9.9 90 0.8 CALM 0 0 0 0 1020.2 1020.1 2.0
24/03:00am 12.3 12.5 10.5 89 0.9 CALM 0 0 0 0 1020.2 1020.1 2.0
24/02:30am 12.6 12.8 10.7 88 1.0 CALM 0 0 0 0 1020.2 1020.1 2.0
24/02:00am 12.7 13.0 10.8 88 1.0 CALM 0 0 0 0 1020.0 1019.9 2.0
24/01:30am 12.8 13.0 10.7 87 1.1 CALM 0 0 0 0 1019.9 1019.8 2.0
24/01:00am 12.8 12.6 10.5 86 1.2 W 2 9 1 5 1019.9 1019.8 2.0
24/12:30am 13.0 12.0 10.2 83 1.5 WSW 6 13 3 7 1020.0 1019.9 2.0
24/12:00am 13.1 12.9 9.2 77 2.0 CALM 0 0 0 0 1020.0 1019.9 1.8
 
Date/Time
WST
Temp
°C
App
Temp
°C
Dew
Point
Rel
Hum
%
Delta-T
°C
Wind Press
QNH
hPa
Press
MSL
hPa
Rain
since 9 am
mm
Dir
 
Spd
km/h
Gust
km/h
Spd
kts
Gust
kts
23/11:30pm 13.4 13.3 9.3 76 2.1 CALM 0 0 0 0 1019.7 1019.7 1.8
23/11:00pm 13.6 13.1 9.3 75 2.2 W 2 7 1 4 1019.9 1019.8 1.8
23/10:30pm 13.8 13.6 9.0 73 2.4 CALM 0 0 0 0 1019.9 1019.8 1.8
23/10:00pm 14.0 12.8 9.4 74 2.4 WSW 6 9 3 5 1020.1 1020.0 1.8
23/09:30pm 13.6 13.5 9.6 77 2.1 CALM 0 0 0 0 1020.1 1020.0 1.8
23/09:00pm 14.0 13.7 10.0 77 2.1 W 2 9 1 5 1020.1 1020.0 1.8
23/08:30pm 14.0 12.9 10.6 80 1.8 WSW 7 9 4 5 1020.1 1020.0 1.8
23/08:00pm 13.7 13.2 10.7 82 1.6 W 4 7 2 4 1019.9 1019.8 1.8
23/07:30pm 13.9 12.4 10.7 81 1.7 SW 9 13 5 7 1019.5 1019.5 1.8
23/07:00pm 14.6 12.6 11.4 81 1.7 SW 13 22 7 12 1019.2 1019.2 1.6
23/06:30pm 14.5 13.3 11.6 83 1.6 SW 9 17 5 9 1018.9 1018.9 1.6
23/06:00pm 14.2 13.3 11.2 82 1.6 W 7 11 4 6 1018.5 1018.5 1.6
23/05:30pm 14.3 14.6 10.9 80 1.8 CALM 0 6 0 3 1018.1 1018.1 1.6
23/05:00pm 14.7 13.3 10.9 78 2.0 W 9 11 5 6 1017.9 1017.9 1.6
23/04:30pm 15.8 13.7 11.0 73 2.6 WSW 13 17 7 9 1017.6 1017.6 1.6
23/04:00pm 16.2 14.0 12.2 77 2.2 WSW 15 24 8 13 1017.4 1017.4 1.6
23/03:30pm 16.3 14.0 11.7 74 2.5 SW 15 24 8 13 1017.1 1017.1 1.6
23/03:00pm 16.5 14.8 12.3 76 2.3 SW 13 22 7 12 1017.0 1017.0 1.6
23/02:30pm 16.5 14.5 12.7 78 2.1 WSW 15 28 8 15 1016.8 1016.8 1.6
23/02:00pm 16.6 15.7 13.7 83 1.6 WSW 11 19 6 10 1016.6 1016.6 1.6
23/01:30pm 16.8 15.0 13.3 80 2.0 SW 15 22 8 12 1016.5 1016.5 1.6
23/01:00pm 17.4 16.9 15.9 91 0.9 SW 13 20 7 11 1016.5 1016.5 1.6
23/12:30pm 16.5 16.9 16.2 98 0.2 WNW 9 13 5 7 1016.7 1016.7 1.6
23/12:00pm 15.3 15.5 14.7 96 0.3 WNW 7 11 4 6 1016.9 1016.9 1.6
23/11:30am 15.3 14.9 14.2 93 0.6 W 9 15 5 8 1017.0 1017.0 1.2
23/11:00am 15.5 15.0 13.9 90 0.9 W 9 15 5 8 1016.9 1016.9 0.0
23/10:30am 15.4 12.6 12.7 84 1.5 WNW 19 26 10 14 1016.8 1016.8 0.0
23/10:00am 16.8 13.4 12.5 76 2.4 WNW 22 30 12 16 1016.5 1016.5 0.0
23/09:30am 16.1 12.5 11.9 76 2.3 NW 22 33 12 18 1016.2 1016.1 0.0
23/09:00am 15.7 11.6 11.3 75 2.4 NW 24 37 13 20 1016.4 1016.4 0.0
23/08:30am 14.9 11.4 10.9 77 2.1 NW 20 35 11 19 1016.1 1016.0 0.0
23/08:00am 14.2 11.1 10.4 78 2.0 NW 17 26 9 14 1016.1 1016.0 0.0
23/07:30am 13.0 10.0 9.4 79 1.8 NW 15 26 8 14 1015.8 1015.7 0.0
23/07:00am 13.1 10.5 9.4 78 1.9 NW 13 19 7 10 1015.9 1015.8 0.0
23/06:30am 13.3 10.7 9.4 77 2.0 NW 13 22 7 12 1015.6 1015.5 0.0
23/06:00am 13.1 10.0 9.0 76 2.1 NW 15 24 8 13 1015.7 1015.6 0.0
23/05:30am 12.6 10.8 9.4 81 1.6 NNW 9 17 5 9 1015.6 1015.5 0.0
23/05:00am 11.4 10.3 8.4 82 1.5 NW 4 13 2 7 1015.4 1015.3 0.0
23/04:30am 11.0 10.5 7.9 81 1.5 CALM 0 2 0 1 1015.4 1015.3 0.0
23/04:00am 11.3 10.9 8.3 82 1.5 CALM 0 0 0 0 1015.4 1015.3 0.0
23/03:30am 11.8 10.9 9.4 85 1.2 N 4 11 2 6 1015.4 1015.3 0.0
23/03:00am 10.5 10.1 8.3 86 1.1 CALM 0 0 0 0 1015.7 1015.6 0.0
23/02:30am 10.3 9.8 7.9 85 1.2 CALM 0 0 0 0 1016.1 1016.0 0.0
23/02:00am 11.2 10.9 8.6 84 1.3 CALM 0 2 0 1 1016.2 1016.1 0.0
23/01:30am 11.1 10.1 8.7 85 1.2 N 4 9 2 5 1016.5 1016.5 0.0
23/01:00am 11.7 9.8 9.1 84 1.3 NNE 9 13 5 7 1016.7 1016.7 0.0
23/12:30am 11.4 9.8 8.6 83 1.4 NE 7 11 4 6 1016.9 1016.9 0.0
23/12:00am 12.1 10.7 8.9 81 1.6 NE 6 11 3 6 1017.2 1017.2 0.0
 
Date/Time
WST
Temp
°C
App
Temp
°C
Dew
Point
Rel
Hum
%
Delta-T
°C
Wind Press
QNH
hPa
Press
MSL
hPa
Rain
since 9 am
mm
Dir
 
Spd
km/h
Gust
km/h
Spd
kts
Gust
kts
22/11:30pm 12.9 11.2 9.7 81 1.6 NNE 9 13 5 7 1017.2 1017.2 0.0
22/11:00pm 12.8 10.9 9.1 78 1.9 N 9 15 5 8 1017.5 1017.5 0.0
22/10:30pm 13.2 10.5 9.1 76 2.1 NNE 13 19 7 10 1017.8 1017.8 0.0
22/10:00pm 13.0 10.2 8.7 75 2.2 NNE 13 17 7 9 1018.0 1018.0 0.0
22/09:30pm 13.3 10.1 8.6 73 2.4 NNE 15 20 8 11 1018.1 1018.1 0.0
22/09:00pm 13.8 10.7 8.8 72 2.5 NNE 15 20 8 11 1018.2 1018.2 0.0
22/08:30pm 13.7 11.4 9.0 73 2.4 NNE 11 17 6 9 1018.3 1018.3 0.0
22/08:00pm 13.5 11.1 8.8 73 2.4 NNE 11 15 6 8 1018.2 1018.2 0.0
22/07:30pm 14.2 11.5 9.0 71 2.6 NNE 13 20 7 11 1017.9 1017.9 0.0
22/07:00pm 14.6 11.9 9.0 69 2.9 NE 13 20 7 11 1017.8 1017.8 0.0
22/06:30pm 14.2 12.3 9.2 72 2.6 NE 9 13 5 7 1017.9 1017.9 0.0
22/06:00pm 13.6 13.3 8.7 72 2.5 CALM 0 0 0 0 1017.8 1017.8 0.0
22/05:30pm 14.1 13.9 8.9 71 2.6 CALM 0 0 0 0 1017.7 1017.7 0.0
22/05:00pm 15.4 15.2 9.1 66 3.2 CALM 0 0 0 0 1017.9 1017.9 0.0
22/04:30pm 17.6 17.4 9.2 58 4.4 CALM 0 0 0 0 1017.8 1017.8 0.0
22/04:00pm 18.3 16.9 8.8 54 4.9 N 6 11 3 6 1017.7 1017.7 0.0
22/03:30pm 18.4 16.7 8.4 52 5.2 NNE 7 11 4 6 1017.7 1017.7 0.0
22/03:00pm 18.8 17.1 8.5 51 5.3 NNE 7 15 4 8 1017.8 1017.8 0.0
22/02:30pm 18.1 16.2 8.9 55 4.8 N 9 15 5 8 1017.8 1017.8 0.0
22/02:00pm 18.8 16.4 8.5 51 5.3 N 11 19 6 10 1018.0 1018.0 0.0
22/01:30pm 18.6 16.5 9.7 56 4.7 NNE 11 17 6 9 1018.3 1018.3 0.0
22/01:00pm 18.0 15.6 8.8 55 4.8 N 11 20 6 11 1018.6 1018.6 0.0
22/12:30pm 17.7 16.3 9.6 59 4.3 NNE 7 17 4 9 1019.2 1019.2 0.0
22/12:00pm 17.1 14.7 8.8 58 4.3 NNE 11 19 6 10 1019.9 1019.8 0.0
22/11:30am 16.9 15.6 9.8 63 3.7 NNE 7 13 4 7 1020.5 1020.4 0.0
22/11:00am 15.7 13.6 8.4 62 3.7 N 9 19 5 10 1021.0 1020.9 0.0
22/10:30am 14.5 11.9 7.8 64 3.3 NNE 11 19 6 10 1021.3 1021.2 0.0
22/10:00am 13.9 11.7 7.7 66 3.1 N 9 15 5 8 1021.5 1021.4 0.0
22/09:30am 12.1 10.4 7.4 73 2.3 ESE 6 11 3 6 1021.7 1021.6 0.0
22/09:00am 11.0 10.1 6.2 72 2.2 CALM 0 0 0 0 1021.9 1021.8 0.0
22/08:30am 10.9 8.3 5.9 71 2.3 N 9 17 5 9 1022.0 1021.9 0.0
22/08:00am 9.7 7.0 5.7 76 1.8 N 9 20 5 11 1022.1 1022.0 0.0
22/07:30am 7.3 5.6 4.1 80 1.4 NE 2 11 1 6 1022.0 1021.9 0.0
22/07:00am 7.4 5.7 4.2 80 1.4 NNE 2 9 1 5 1022.0 1021.9 0.0
22/06:30am 6.6 5.1 3.0 78 1.5 CALM 0 6 0 3 1022.1 1022.0 0.0
22/06:00am 8.1 6.4 3.9 75 1.8 N 2 11 1 6 1021.9 1021.8 0.0
22/05:30am 8.8 5.1 4.4 74 1.9 NE 13 24 7 13 1022.0 1021.9 0.0
22/05:00am 8.6 6.0 4.0 73 2.0 NNE 7 13 4 7 1022.2 1022.1 0.0
22/04:30am 8.9 5.6 4.3 73 2.0 NE 11 19 6 10 1022.4 1022.3 0.0
22/04:00am 9.0 5.6 4.2 72 2.1 NE 11 19 6 10 1022.6 1022.5 0.0
22/03:30am 8.9 5.1 4.1 72 2.1 NE 13 20 7 11 1022.8 1022.7 0.0
22/03:00am 9.5 5.4 4.5 71 2.2 NE 15 24 8 13 1023.1 1023.0 0.0
22/02:30am 9.2 5.1 4.2 71 2.2 NE 15 26 8 14 1023.4 1023.3 0.0
22/02:00am 9.4 5.7 4.4 71 2.2 NE 13 20 7 11 1023.6 1023.5 0.0
22/01:30am 9.6 5.9 4.4 70 2.3 NE 13 20 7 11 1023.9 1023.8 0.0
22/01:00am 9.6 5.9 4.2 69 2.4 NNE 13 20 7 11 1024.2 1024.1 0.0
22/12:30am 10.0 6.3 4.6 69 2.4 NNE 13 24 7 13 1024.5 1024.4 0.0
22/12:00am 9.8 6.1 4.6 70 2.3 NNE 13 20 7 11 1024.6 1024.5 0.0
 
Date/Time
WST
Temp
°C
App
Temp
°C
Dew
Point
Rel
Hum
%
Delta-T
°C
Wind Press
QNH
hPa
Press
MSL
hPa
Rain
since 9 am
mm
Dir
 
Spd
km/h
Gust
km/h
Spd
kts
Gust
kts
21/11:30pm 9.2 6.3 4.4 72 2.1 NNE 9 15 5 8 1024.8 1024.7 0.0
21/11:00pm 9.6 6.7 4.6 71 2.2 NNE 9 13 5 7 1025.0 1024.9 0.0
21/10:30pm 10.4 7.4 6.2 75 2.0 NNE 11 20 6 11 1025.3 1025.2 0.0
21/10:00pm 8.7 6.0 5.6 81 1.4 NE 9 15 5 8 1025.3 1025.2 0.0
21/09:30pm 9.5 6.8 5.5 76 1.8 ENE 9 11 5 6 1025.5 1025.4 0.0
21/09:00pm 9.7 7.4 5.7 76 1.8 NE 7 11 4 6 1025.6 1025.5 0.0
21/08:30pm 10.3 8.0 5.9 74 2.0 NE 7 9 4 5 1025.4 1025.3 0.0
21/08:00pm 10.8 8.1 5.8 71 2.3 ENE 9 11 5 6 1025.5 1025.4 0.0
21/07:30pm 11.7 9.5 6.0 68 2.7 NE 7 9 4 5 1025.6 1025.5 0.0
21/07:00pm 11.1 8.8 5.8 70 2.5 NE 7 9 4 5 1025.6 1025.5 0.0
21/06:30pm 11.7 10.8 6.2 69 2.6 CALM 0 0 0 0 1025.6 1025.5 0.0
21/06:00pm 12.2 11.3 6.0 66 2.9 CALM 0 0 0 0 1025.5 1025.4 0.0
21/05:30pm 12.9 10.8 6.0 63 3.3 ENE 6 11 3 6 1025.6 1025.5 0.0
21/05:00pm 13.7 11.5 6.1 60 3.6 NE 7 11 4 6 1025.5 1025.4 0.0
21/04:30pm 14.2 12.0 6.3 59 3.8 NE 7 11 4 6 1025.5 1025.4 0.0
21/04:00pm 15.3 12.5 7.1 58 4.0 ENE 11 17 6 9 1025.6 1025.5 0.0
21/03:30pm 15.2 12.5 7.2 59 4.0 E 11 17 6 9 1025.8 1025.7 0.0

Other Formats:

Comma delimited format used in spreadsheet applications
http://www.bom.gov.au/fwo/IDW60801/IDW60801.95647.axf

JavaScript Object Notation format (JSON) in row-major order
http://www.bom.gov.au/fwo/IDW60801/IDW60801.95647.json